Find Starlink 34886

NORAD ID: 65683 Int'l Des: 2025-212 Owner: SPXS Country: US Constellation: starlink operational
LEOCIRCULAR

实时位置

正在加载3D地球...

关于 Starlink 34886

正在加载描述...

即将过境

Passes for default location (London). Set your location on the main map for personalized predictions.

高度历史

Loading altitude history...

两行轨道根数

1 65683U 25212H 26107.14556110 .00008895 00000-0 31209-3 0 9997
2 65683 53.1592 166.8843 0001208 87.2774 272.8365 15.30200856 33084
Epoch: Apr 17, 2026 • Age: 16 hours

当前状态

高度 479.2 km
速度 7.63 km/s
星下点 45.36°N, 75.24°E
发射日期 Sep 21, 2025
运行时间 0.5 years
类型 internet

技术详情

分类 Payload
质量 575.00 kg
干质量 530.00 kg
总质量 575.00 kg
长度 0.30 m
直径 4.10 m
跨度 29.00 m
形状 Box + pan
制造商 SPXS
平台类型 Starlink V2MO
阶段状态 In Orbit
所有者/国家 SPXS/US

Most Searched